[[{"header":{"parameterUnit":"m.s-1","parameterCategory":1,"la1":30.2991,"la2":30.254,"lo1":-89.0895,"lo2":-89.0444,"dy":0.0017,"dx":0.0017,"nx":28,"ny":28,"refTime":"2024-07-24T09:00:00:Z","depth":0,"parameterNumber":2,"parameterNumberName":"U-component_of_WINDS"},"data":[0,0,0,0,0,0,0,0,0,0,0,0,0,0,0,0,0,0,0,0,0,0,0,0,0,0,0,0,0,0,0,0,0,0,0,0,0,0,0,0,0,0,0,0,0,0,0,0,0,0,0,0,0,0,0,0,0,0,0.9948,0.9948,0,0.9985,0.9985,0.9986,0.9997,0.9997,0.9997,0.9997,1.0033,1.0034,1.0035,0,0,0,0,0,0,0,0,0,0,0,0,0,0.9888,0.9889,0.9948,0.9948,0.9949,0.9985,0.9985,0.9986,0.9997,0.9997,0.9997,0.9997,1.0033,1.0034,1.0035,0,0,0,0,0,0,0,0,0,0,0,0,0,0.9918,0.9889,0.9948,0.9959,0.996,0.9985,0.9985,0.9986,0.9997,0.9997,0.9997,0.9997,1.0032,1.0034,1.0036,1.0051,0,0,1.0041,1.0041,0,0,0,0,0,0,0,0,0.9917,0.9921,0.9957,0.9958,0.996,0.9986,0.9977,1.0008,0.9997,0.9983,0.9997,0.9996,1.0018,1.002,1.0028,1.0053,1.0054,1.0041,1.0042,1.0043,1.0043,0,0,0,0,0,0,0,0.9914,0.9919,0.9962,0.9957,0.9959,0.9962,0.9966,0.9983,1.0001,0.9984,0.9985,0.999,1.0018,1.0026,1.0029,1.0055,1.0041,1.0042,1.0043,1.0044,1.0096,1.0096,0,0,0,0,0,0,0.9911,0.9917,0.9961,0.9964,0.9937,0.9964,0.9968,0.9978,1.0001,1.0004,0.999,0.999,1.0023,1.0027,1.003,1.005,1.0043,1.0044,1.0045,1.0095,1.0096,1.0096,0,0,0,0,0,0,0.9909,0.9914,0.996,0.9941,0.9947,0.9965,0.9976,0.9979,0.9987,1.0005,1.0008,0.9994,1.0023,1.0028,1.0046,1.0052,1.0045,1.0046,1.0095,1.0095,1.0096,1.0091,0,0,0,0,0,0,0.9907,0.9914,0.992,0.9941,0.9948,0.9975,0.9976,0.998,0.999,0.999,1.001,1.0014,1.0023,1.0043,1.0048,1.0054,1.0048,1.0094,1.0095,1.0096,1.009,1.0091,1.0091,0,0,0,0,0,0.9905,0.9916,0.992,0.9925,0.9955,0.9975,0.9979,0.9991,0.999,0.9996,1.0009,1.0013,1.0051,1.0045,1.005,1.0057,1.0094,1.0095,1.0096,1.009,1.0091,1.0091,0,0,0,0,0,0,0.9894,0.9919,0.9923,0.9941,0.9956,0.9977,0.9985,0.9991,1.0006,1.0006,1.0019,1.0024,1.0041,1.0051,1.0045,1.0074,1.0073,1.0074,1.0067,1.0068,1.0068,1.0065,1.0049,0,0,0,0,0,0.9894,0.9908,0.9929,0.9943,0.995,0.9967,0.9976,0.9984,0.9999,1.0006,1.0019,1.0034,1.0049,1.0059,1.0074,1.0092,1.0097,1.01,1.01,1.01,1.0102,1.0113,1.0115,1.0099,1.0099,1.0099,0,0,0.9893,0.9909,0.9917,0.9941,0.9954,0.9969,0.9972,0.9987,0.9998,1.0008,1.0026,1.0037,1.0054,1.0073,1.0082,1.0082,1.0107,1.0101,1.0102,1.0103,1.0114,1.0116,1.0117,1.0099,1.0099,1.0099,0,0,0.99,0.9913,0.9926,0.9939,0.9959,0.997,0.9973,0.9994,1.0001,1.002,1.0028,1.0042,1.0068,1.008,1.009,1.0104,1.0109,1.0109,1.0111,1.0122,1.0123,1.0125,1.013,1.0132,1.011,1.011,1.011,0,0.9896,0.9919,0.9932,0.9948,0.9959,0.9969,0.9983,0.9995,1.0018,1.0025,1.0025,1.0059,1.0072,1.0094,1.0098,1.0105,1.011,1.0106,1.0122,1.0123,1.0125,1.013,1.0132,1.011,1.011,1.011,1.011,0,0.9914,0.993,0.9939,0.9962,0.9974,0.9988,1.0004,1.0015,1.0022,1.0033,1.0053,1.0069,1.0088,1.0094,1.0101,1.0118,1.0117,1.012,1.0118,1.0126,1.0131,1.0133,1.011,1.011,1.011,1.011,0,0,0.9913,0.9945,0.9948,0.9959,0.9982,0.9995,1.001,1.003,1.0039,1.0055,1.0068,1.0091,1.0094,1.0105,1.0114,1.0124,1.0135,1.0125,1.0125,1.0126,1.0155,1.0153,1.0155,1.0138,1.0139,1.0139,1.0154,0,0.9923,0.9951,0.9965,0.9987,1.0002,1.0014,1.0028,1.0043,1.0055,1.007,1.0082,1.0098,1.01,1.0107,1.0118,1.0131,1.014,1.013,1.0151,1.0152,1.0146,1.0158,1.0156,1.0169,1.0156,1.0156,1.0156,0,0.9937,0.9954,0.9979,1.0001,1.0008,1.002,1.004,1.0054,1.0073,1.008,1.0094,1.0103,1.012,1.0119,1.0143,1.0136,1.0146,1.0154,1.0155,1.0157,1.0154,1.016,1.0173,1.0175,1.016,1.0159,1.0159,0,0.9934,0.9963,0.9982,0.9991,1.0018,1.0027,1.0038,1.0057,1.0068,1.0086,1.0093,1.0112,1.0123,1.0137,1.0151,1.0149,1.0175,1.0174,1.0182,1.0182,1.0186,1.0186,1.02,1.0193,1.0193,1.0193,1.0193,0,0.9943,0.9958,0.9982,0.9993,1.001,1.0026,1.0042,1.0055,1.0071,1.0086,1.0097,1.011,1.0128,1.0144,1.0155,1.0174,1.0178,1.0185,1.0188,1.0184,1.0183,1.019,1.019,1.0193,1.0193,1.0193,1.0193,0,0.9942,0.9959,0.998,1.0005,1.0011,1.0023,1.0044,1.0056,1.0068,1.0086,1.0092,1.0112,1.0131,1.0147,1.0171,1.0179,1.0199,1.0202,1.0193,1.0194,1.0201,1.02,1.0221,1.0224,1.0214,1.0215,1.0215,0,0.9947,0.9959,0.9985,0.9996,1.0007,1.0024,1.0037,1.0053,1.0065,1.0089,1.0098,1.0118,1.0135,1.0165,1.0182,1.0202,1.0205,1.0211,1.0208,1.0204,1.0206,1.0205,1.0206,1.0211,1.0211,1.0211,1.0211,0,0.9953,0.9961,0.9979,0.9999,1.0014,1.0031,1.0048,1.0056,1.0076,1.0089,1.0109,1.0123,1.0149,1.0169,1.0191,1.0203,1.0211,1.0212,1.0215,1.0211,1.0205,1.0209,1.0194,1.0212,1.0212,1.0211,1.0211,1.0211,0.9955,0.9967,0.9987,1.0007,1.0022,1.0038,1.0051,1.0066,1.0083,1.0106,1.0115,1.0136,1.0156,1.0186,1.0199,1.0216,1.0216,1.022,1.0221,1.0222,1.0222,1.0203,1.0219,1.022,1.022,1.022,1.022,0,0.9962,0.9977,0.9995,1.0019,1.0034,1.0041,1.0061,1.0073,1.0092,1.011,1.0127,1.0151,1.0171,1.019,1.0212,1.0222,1.0226,1.0227,1.0226,1.0229,1.0219,1.0215,1.0223,1.0223,1.0223,1.0223,1.0223,1.0223,0.9968,0.9988,0.9999,1.0027,1.0041,1.0062,1.0073,1.0088,1.0103,1.0129,1.0147,1.0159,1.0178,1.0201,1.022,1.0226,1.0233,1.0233,1.0239,1.023,1.0229,1.0229,1.0224,1.0234,1.0234,1.0247,1.0247,1.0247]},{"header":{"parameterUnit":"m.s-1","parameterCategory":1,"la1":30.2991,"la2":30.254,"lo1":-89.0895,"lo2":-89.0444,"dy":0.0017,"dx":0.0017,"nx":28,"ny":28,"refTime":"2024-07-24T09:00:00:Z","depth":0,"parameterNumber":3,"parameterNumberName":"V-component_of_WINDS"},"data":[0,0,0,0,0,0,0,0,0,0,0,0,0,0,0,0,0,0,0,0,0,0,0,0,0,0,0,0,0,0,0,0,0,0,0,0,0,0,0,0,0,0,0,0,0,0,0,0,0,0,0,0,0,0,0,0,0,0,1.2591,1.2592,0,1.2639,1.264,1.2641,1.271,1.2711,1.2712,1.2713,1.2758,1.2758,1.2758,0,0,0,0,0,0,0,0,0,0,0,0,0,1.2554,1.2554,1.2591,1.2592,1.2592,1.2639,1.264,1.2641,1.2709,1.2711,1.2712,1.2714,1.2758,1.2758,1.2758,0,0,0,0,0,0,0,0,0,0,0,0,0,1.2582,1.2554,1.2591,1.2633,1.2637,1.2639,1.264,1.2641,1.2709,1.2711,1.2713,1.2714,1.2758,1.2758,1.2758,1.2723,0,0,1.2758,1.2758,0,0,0,0,0,0,0,0,1.2581,1.2584,1.2626,1.263,1.2634,1.2671,1.2643,1.2668,1.2709,1.2681,1.2713,1.2715,1.2727,1.273,1.2735,1.2725,1.2727,1.2758,1.2759,1.2759,1.2759,0,0,0,0,0,0,0,1.2579,1.2582,1.261,1.2626,1.2632,1.2647,1.2653,1.2648,1.2693,1.2684,1.2689,1.2694,1.273,1.2734,1.2736,1.2727,1.2758,1.2759,1.2759,1.2759,1.2689,1.2687,0,0,0,0,0,0,1.2571,1.258,1.2609,1.2612,1.2612,1.2646,1.2653,1.2657,1.2694,1.2701,1.2692,1.2697,1.2733,1.2736,1.2738,1.2698,1.2759,1.2759,1.2759,1.2691,1.2688,1.2686,0,0,0,0,0,0,1.257,1.2573,1.2607,1.2597,1.2603,1.2645,1.2649,1.2657,1.2662,1.27,1.2708,1.2689,1.2735,1.2738,1.2726,1.27,1.2759,1.2759,1.2693,1.269,1.2687,1.2617,0,0,0,0,0,0,1.2569,1.2572,1.2561,1.2597,1.2603,1.2595,1.2647,1.2657,1.2662,1.2669,1.2699,1.2706,1.2737,1.2725,1.2726,1.2702,1.2759,1.2695,1.2691,1.2688,1.2622,1.2612,1.2604,0,0,0,0,0,1.2567,1.2538,1.256,1.2563,1.2589,1.2593,1.2597,1.2634,1.266,1.2648,1.2672,1.2705,1.2703,1.2724,1.2725,1.27,1.2697,1.2693,1.2688,1.2626,1.2614,1.2604,0,0,0,0,0,0,1.2497,1.2544,1.2568,1.255,1.2567,1.2605,1.2591,1.262,1.2629,1.2635,1.2679,1.2685,1.2667,1.2683,1.2704,1.2667,1.2705,1.2701,1.2657,1.2646,1.2638,1.2634,1.2759,0,0,0,0,0,1.248,1.2481,1.2521,1.2501,1.2509,1.2548,1.2551,1.2578,1.2597,1.2604,1.2628,1.2644,1.2647,1.2648,1.2653,1.2625,1.2631,1.2608,1.2599,1.2592,1.2587,1.2572,1.2562,1.2672,1.2672,1.2672,0,0,1.2444,1.2469,1.2467,1.2488,1.2505,1.2503,1.2554,1.255,1.2548,1.2603,1.2594,1.2611,1.2631,1.2611,1.2603,1.2623,1.2558,1.2586,1.258,1.258,1.2566,1.2556,1.2547,1.2669,1.2669,1.267,0,0,1.2377,1.2397,1.2382,1.2398,1.2423,1.2449,1.2445,1.2478,1.2492,1.2483,1.2524,1.2522,1.2526,1.2539,1.2546,1.2482,1.2512,1.2482,1.2435,1.242,1.2411,1.2403,1.2379,1.237,1.2478,1.2477,1.2477,0,1.2328,1.2329,1.2371,1.2364,1.2371,1.2422,1.2406,1.2419,1.2443,1.2446,1.2468,1.2474,1.2492,1.2474,1.2458,1.2463,1.2458,1.2479,1.2409,1.2402,1.2395,1.2373,1.2364,1.2474,1.2474,1.2474,1.2475,0,1.2267,1.2266,1.2251,1.2275,1.228,1.2269,1.2307,1.2307,1.2333,1.2356,1.2345,1.2368,1.2378,1.2376,1.2401,1.2361,1.2373,1.2401,1.2441,1.238,1.236,1.2351,1.2468,1.2469,1.2471,1.2472,0,0,1.2157,1.2203,1.2197,1.2208,1.2238,1.2238,1.2228,1.2238,1.2237,1.2251,1.2243,1.2245,1.2272,1.228,1.2306,1.2293,1.2239,1.2324,1.2325,1.2306,1.2195,1.2172,1.2161,1.226,1.2258,1.2257,1.2192,0,1.2095,1.2083,1.2119,1.2096,1.2095,1.2143,1.2134,1.2151,1.2172,1.2172,1.2195,1.2195,1.2232,1.2236,1.2225,1.2248,1.2217,1.2253,1.225,1.225,1.2243,1.2151,1.2127,1.2065,1.2185,1.2183,1.2183,0,1.2021,1.2033,1.201,1.2041,1.2042,1.2033,1.2045,1.2046,1.2065,1.2081,1.2089,1.2121,1.2111,1.2149,1.2136,1.216,1.216,1.2171,1.217,1.217,1.2212,1.2147,1.2046,1.2036,1.2171,1.2171,1.2172,0,1.1941,1.1951,1.1939,1.1947,1.1982,1.1975,1.1989,1.201,1.2014,1.2024,1.2026,1.2034,1.2038,1.2043,1.2075,1.21,1.2057,1.2098,1.2068,1.2067,1.2056,1.2056,1.1953,1.2058,1.2059,1.2059,1.2059,0,1.1868,1.1851,1.1903,1.1895,1.1878,1.192,1.1901,1.192,1.1938,1.1933,1.1974,1.1969,1.2012,1.201,1.2035,1.2019,1.2021,1.2032,1.2039,1.2028,1.2026,1.2028,1.2033,1.2056,1.2057,1.2057,1.2058,0,1.1775,1.181,1.1799,1.1834,1.1842,1.1828,1.1857,1.185,1.1873,1.1866,1.1867,1.1903,1.1903,1.1936,1.1943,1.196,1.1932,1.1947,1.1926,1.1931,1.1898,1.19,1.1791,1.1779,1.1893,1.1892,1.1891,0,1.1725,1.1714,1.1748,1.1748,1.1761,1.1761,1.1765,1.1805,1.1807,1.1827,1.1817,1.1821,1.1826,1.1824,1.1849,1.1854,1.1869,1.1831,1.187,1.1859,1.1867,1.1867,1.1865,1.1822,1.182,1.1819,1.1818,0,1.1633,1.165,1.1655,1.1665,1.1669,1.1679,1.1691,1.1689,1.1732,1.1732,1.1734,1.1738,1.1745,1.1747,1.1757,1.177,1.18,1.1806,1.1799,1.1787,1.1775,1.1779,1.1902,1.1808,1.1809,1.181,1.181,1.1811,1.1559,1.1551,1.1573,1.1577,1.159,1.1601,1.1596,1.1619,1.1621,1.1631,1.1654,1.1651,1.1668,1.1685,1.1695,1.1692,1.1711,1.1701,1.1698,1.1695,1.1688,1.1776,1.1694,1.1694,1.1694,1.1695,1.1695,0,1.1468,1.1484,1.1487,1.1503,1.1506,1.1536,1.1551,1.155,1.1548,1.1562,1.1567,1.1567,1.1569,1.1595,1.16,1.1593,1.1607,1.1593,1.1593,1.1595,1.1672,1.1677,1.1581,1.1581,1.1581,1.1581,1.1581,1.1581,1.142,1.1407,1.1427,1.142,1.1437,1.1435,1.1441,1.145,1.1462,1.1461,1.1464,1.1481,1.1499,1.1506,1.1509,1.1516,1.1516,1.1496,1.1508,1.1579,1.159,1.16,1.1605,1.1496,1.1496,1.1432,1.1431,1.1431]}]]